[Date Prev][Date Next][Thread Prev][Thread Next] - [Date Index][Thread Index][Author Index]
2 Line ISS Keps 6-5
- Subject: [sarex] 2 Line ISS Keps 6-5
- From: "Dave Larsen PhD" <doc@xxxxxxxxxxx>
- Date: Wed, 5 Jun 2002 03:08:42 -0700
ISS
1 25544U 98067A 02156.16341087 .00031290 00000-0 37775-3 0 5302
2 25544 51.6353 113.3604 0006480 152.1678 304.6735 15.60437324202154
----
Via the sarex mailing list at AMSAT.ORG courtesy of AMSAT-NA.
To unsubscribe, send "unsubscribe sarex" to Majordomo@amsat.org
AMSAT Home